Estación de Petorca

Ultimos registro cada 15 minutos 63
Estación Fecha / Hora Temperatura Humedad Lluvia Velocidad Dirección Radiación Presion
63 Petorca 04-09-2026 15:30 21,7 58,7 0 1,5 244 580,6 985,4
62 Petorca 04-09-2026 15:15 21,3 59,3 0 1,5 246 615,6 985,4
61 Petorca 04-09-2026 15:00 21 59,7 0 2 246 661,9 985,3
60 Petorca 04-09-2026 14:45 21,2 61,2 0 1,5 256 693,1 985,4
59 Petorca 04-09-2026 14:30 21,2 61,9 0 2,5 240 725,6 985,4
58 Petorca 04-09-2026 14:15 21,1 62,8 0 2 244 748,1 985,5
57 Petorca 04-09-2026 14:00 21,3 60,9 0 2,5 236 770,6 985,6
56 Petorca 04-09-2026 13:45 21,4 61,6 0 3 222 793,1 985,4
55 Petorca 04-09-2026 13:30 20,9 62,5 0 3 225 809,4 985,7
54 Petorca 04-09-2026 13:15 20,8 64,5 0 3 229 816,9 985,9
53 Petorca 04-09-2026 13:00 20,6 65,8 0 3 229 818,1 986,2
52 Petorca 04-09-2026 12:45 20,1 66,9 0 2,5 226 814,4 986,2
51 Petorca 04-09-2026 12:30 20,2 67,7 0 1,5 204 813,1 986,3
50 Petorca 04-09-2026 12:15 20 66,7 0 1 215 809,4 986,7
49 Petorca 04-09-2026 12:00 19,5 66,2 0 1 215 798,1 986,9
48 Petorca 04-09-2026 11:45 18,9 71,1 0 1,5 223 783,1 987,1
47 Petorca 04-09-2026 11:30 19 71,9 0 0,5 201 760,6 987,5
46 Petorca 04-09-2026 11:15 18,9 69,7 0 0,5 237 738,1 987,7
45 Petorca 04-09-2026 11:00 19,4 70,6 0 0 181 709,4 987,5
44 Petorca 04-09-2026 10:45 18,1 69,7 0 0 243 679,4 988
43 Petorca 04-09-2026 10:30 17,7 70,1 0 0 218 649,4 988,1
42 Petorca 04-09-2026 10:15 17 71,6 0 0 227 610,6 988,3
41 Petorca 04-09-2026 10:00 17,5 72,5 0 0 143 570,6 988,3
40 Petorca 04-09-2026 09:45 15,9 75,7 0 0 163 528,1 988,4
39 Petorca 04-09-2026 09:30 15,1 78,3 0 0 206 481,9 988,5
38 Petorca 04-09-2026 09:15 13,9 81,3 0 0 236 429,4 988,7
37 Petorca 04-09-2026 09:00 13 86,2 0 0 209 379,4 988,8
36 Petorca 04-09-2026 08:45 11,7 89,8 0 0,5 201 325,6 988,9
35 Petorca 04-09-2026 08:30 11 95,4 0 0 60 274,4 989
34 Petorca 04-09-2026 08:15 9 98,3 0 0 35 225,6 988,9
33 Petorca 04-09-2026 08:00 7,1 98,6 0 0 42 30,6 989
32 Petorca 04-09-2026 07:45 6,7 98,5 0 0 35 23,1 989
31 Petorca 04-09-2026 07:30 6,5 98,4 0 0 28 16,9 988,9
30 Petorca 04-09-2026 07:15 6,2 98,5 0 0 7 6,9 988,9
29 Petorca 04-09-2026 07:00 6,3 98,1 0 0 6 3,1 988,7
28 Petorca 04-09-2026 06:45 6,8 98,6 0 0 20 0,6 988,6
27 Petorca 04-09-2026 06:30 6,4 98,5 0 0 4 0,6 988,8
26 Petorca 04-09-2026 06:15 5,8 98,2 0 0 38 0,6 988,8
25 Petorca 04-09-2026 06:00 5,8 98,1 0 0 17 0,6 988,7
24 Petorca 04-09-2026 05:45 6,1 98 0 0 37 0,6 988,8
23 Petorca 04-09-2026 05:30 6,1 98,1 0 0 10 0,6 988,7
22 Petorca 04-09-2026 05:15 6,4 98,2 0 0 348 0,6 988,7
21 Petorca 04-09-2026 05:00 6,7 97,9 0 0 343 0,6 988,8
20 Petorca 04-09-2026 04:45 6,6 97,9 0 0 348 0,6 988,9
19 Petorca 04-09-2026 04:30 7 97,7 0 0 13 0,6 988,8
18 Petorca 04-09-2026 04:15 7,1 97,6 0 0 7 0,6 988,7
17 Petorca 04-09-2026 04:00 7,5 97,6 0 0 18 0,6 988,7
16 Petorca 04-09-2026 03:45 7,6 97,6 0 0 24 0,6 988,9
15 Petorca 04-09-2026 03:30 7,5 97,4 0 0 24 0,6 988,9
14 Petorca 04-09-2026 03:15 7,6 97,4 0 0 37 0,6 989
13 Petorca 04-09-2026 03:00 7,7 97,5 0 0 7 0,6 989,1
12 Petorca 04-09-2026 02:45 7,5 97,4 0 0 1 0,6 989,4
11 Petorca 04-09-2026 02:30 7,9 97,4 0 0 8 0,6 989,4
10 Petorca 04-09-2026 02:15 7,4 96,7 0 0 31 0,6 989,5
9 Petorca 04-09-2026 02:00 7,7 96,7 0 0 15 0,6 989,8
8 Petorca 04-09-2026 01:45 7,9 96,9 0 0 35 0,6 989,8
7 Petorca 04-09-2026 01:30 8,3 96,7 0 0 13 0,6 989,9
6 Petorca 04-09-2026 01:15 7,9 96,7 0 0 10 0,6 989,9
5 Petorca 04-09-2026 01:00 8 96,4 0 0 17 0,6 990,2
4 Petorca 04-09-2026 00:45 8,3 96,1 0 0 17 0,6 990,2
3 Petorca 04-09-2026 00:30 8,4 96 0 0 6 0,6 990,4
2 Petorca 04-09-2026 00:15 8,4 95,8 0 0 6 0,6 990,3
1 Petorca 04-09-2026 00:00 8,6 95,2 0 0 21 0,6 990,2